EW5523 Weather Reports


time (UTC)temp
F
wind
direction
speed
knots
gust
knots
rain 1hr
in
rain 24hr
in
rain mn
in
humidity
%
barometer
mb
20260901161507 55 101 0.0 0.0 0.00 0.00 0.00 90 1018.4
20260901160003 55 101 0.0 0.0 0.00 0.00 0.00 90 1018.4
20260901154501 56 101 0.0 0.0 0.00 0.00 0.00 90 1018.4
20260901153058 56 101 0.0 0.0 0.00 0.00 0.00 90 1018.4
20260901151604 56 101 0.0 0.0 0.00 0.00 0.00 89 1018.3
20260901111521 59 117 0.0 0.0 0.00 0.00 0.00 78 1018.9
20260901110020 59 119 0.0 0.9 0.00 0.00 0.00 78 1018.8
20260901104518 59 124 0.0 0.0 0.00 0.00 0.00 78 1018.9
20260901103024 58 93 0.0 0.0 0.00 0.00 0.00 79 1018.9
20260901101513 57 111 0.0 0.9 0.00 0.00 0.00 79 1019.0
20260901100011 57 100 0.0 0.0 0.00 0.00 0.00 81 1019.0
20260901094513 56 120 0.0 0.0 0.00 0.00 0.00 83 1019.0
20260901093008 56 115 0.0 0.0 0.00 0.00 0.00 84 1019.1
20260901091506 55 119 0.0 0.0 0.00 0.00 0.00 85 1019.2
20260901090008 55 120 0.0 0.9 0.00 0.00 0.00 86 1019.1
20260901084504 54 86 0.0 0.0 0.00 0.00 0.00 86 1019.2
20260901083002 54 89 0.0 0.0 0.00 0.00 0.00 88 1019.1
20260901081601 54 117 0.0 0.0 0.00 0.00 0.00 88 1019.1
20260901080110 54 78 0.0 0.9 0.00 0.00 0.00 87 1019.1
20260901074600 53 116 0.0 0.0 0.00 0.00 0.00 84 1019.1
20260901073057 53 110 0.0 0.0 0.00 0.00 0.00 85 1019.1
20260901071555 53 138 0.0 0.9 0.00 0.00 0.00 84 1019.1
20260901070055 53 104 0.0 0.0 0.00 0.00 0.00 84 1019.0
20260901064553 53 102 0.0 1.7 0.00 0.00 0.00 84 1019.0
20260901063051 52 72 0.0 0.0 0.00 0.00 0.00 85 1019.0
20260901061550 52 100 0.0 0.0 0.00 0.00 0.00 87 1019.0
20260901060048 52 73 0.0 0.0 0.00 0.00 0.00 89 1019.0
20260901054547 51 74 0.0 1.7 0.00 0.00 0.00 90 1018.9
20260901053114 51 73 0.0 0.9 0.00 0.00 0.00 91 1018.9
20260901051600 51 54 0.0 0.9 0.00 0.00 0.00 92 1018.9
20260901050042 50 83 0.0 1.7 0.00 0.00 0.00 92 1018.8
20260901044552 50 89 0.0 0.0 0.00 0.00 0.00 93 1018.7
20260901043040 50 89 0.0 0.0 0.00 0.00 0.00 93 1018.6
20260901041538 50 95 0.0 0.0 0.00 0.00 0.00 93 1018.7
20260901040051 49 90 0.0 0.9 0.00 0.00 0.00 93 1018.5
20260901034543 49 93 0.0 1.7 0.00 0.00 0.00 93 1018.5
20260901033037 49 77 0.0 0.0 0.00 0.00 0.00 93 1018.4
20260901031535 49 97 0.0 0.0 0.00 0.00 0.00 93 1018.5
20260901030035 49 87 0.0 0.0 0.00 0.00 0.00 93 1018.4
20260901024534 48 92 0.0 0.0 0.00 0.00 0.00 93 1018.2
20260901023043 48 97 0.0 0.0 0.00 0.00 0.00 93 1018.2
20260901021532 48 97 0.0 0.0 0.00 0.00 0.00 92 1018.2
20260901020035 48 97 0.0 0.0 0.00 0.00 0.00 91 1018.1
20260901014530 48 118 0.0 0.0 0.00 0.00 0.00 92 1018.0
20260901013031 49 80 0.0 0.0 0.00 0.00 0.00 93 1018.0
20260901011530 49 319 0.0 0.0 0.00 0.00 0.00 94 1018.1
20260901010029 49 319 0.0 0.0 0.00 0.00 0.00 94 1018.1
20260901004527 49 317 0.0 0.0 0.00 0.00 0.00 94 1018.0
20260901003027 49 317 0.0 0.0 0.00 0.00 0.00 93 1017.8
20260901001526 49 317 0.0 0.0 0.00 0.00 0.00 93 1017.8
20260901000026 49 317 0.0 0.0 0.00 0.00 0.00 93 1017.8
20260831234526 49 317 0.0 0.0 0.00 0.00 0.00 93 1017.7
20260831233025 49 317 0.0 0.0 0.00 0.00 0.00 93 1017.7
20260831231523 49 317 0.0 0.0 0.00 0.00 0.00 92 1017.7
20260831230024 50 317 0.0 0.0 0.00 0.00 0.00 92 1017.8
20260831224521 50 317 0.0 0.0 0.00 0.00 0.00 92 1017.9
20260831223025 50 317 0.0 0.0 0.00 0.00 0.00 92 1017.8
20260831221520 50 317 0.0 0.0 0.00 0.00 0.00 92 1017.9
20260831220020 50 317 0.0 0.0 0.00 0.00 0.00 91 1017.7
20260831214519 50 317 0.0 0.0 0.00 0.00 0.00 91 1017.7
20260831213018 50 317 0.0 0.0 0.00 0.00 0.00 91 1017.8
20260831211516 49 317 0.0 0.0 0.00 0.00 0.00 92 1017.8
20260831210014 49 317 0.0 0.0 0.00 0.00 0.00 92 1017.9
20260831204512 48 317 0.0 0.0 0.00 0.00 0.00 91 1017.9
20260831203014 48 317 0.0 0.0 0.00 0.00 0.00 91 1018.0
20260831201511 48 318 0.0 0.0 0.00 0.00 0.00 91 1018.0
20260831200020 48 317 0.0 0.0 0.00 0.00 0.00 90 1017.9
20260831194509 48 318 0.0 0.0 0.00 0.00 0.00 91 1017.9
20260831193010 48 317 0.0 0.0 0.00 0.00 0.00 89 1017.9
20260831191508 49 317 0.0 0.0 0.00 0.00 0.00 88 1017.9
20260831190007 50 318 0.0 0.0 0.00 0.00 0.00 87 1017.8
20260831184506 50 318 0.0 0.0 0.00 0.00 0.00 87 1017.8
20260831183006 50 317 0.0 0.0 0.00 0.00 0.00 87 1017.8
20260831181506 50 318 0.0 0.0 0.00 0.00 0.00 87 1017.8
20260831180008 49 318 0.0 0.0 0.00 0.00 0.00 88 1017.8
20260831174517 49 317 0.0 0.0 0.00 0.00 0.00 85 1017.7
20260831173004 50 317 0.0 0.0 0.00 0.00 0.00 85 1017.7
20260831171505 51 318 0.0 0.0 0.00 0.00 0.00 83 1017.7
20260831170003 51 317 0.0 0.0 0.00 0.00 0.00 84 1017.7
20260831164509 51 318 0.0 0.0 0.00 0.00 0.00 83 1017.7
20260831163006 53 317 0.0 0.0 0.00 0.00 0.00 80 1017.7